TUSUR GO (RS78S)

Last updated on Thu Oct 30 2025 00:03:10 GMT+0000 (Coordinated Universal Time)

1 61782U 24199AZ 25302.57947891 .00051272 00000+0 10211-2 0 9994 2 61782 97.3257 172.0503 0013142 47.2049 313.0304 15.46652474 98829
UTC large
Height (km)
Speed (km/s)
/
Latitude / Longitude
Inclination (degrees)
Orbital Period (minutes)
Azimuth
Elevation
Range (km)
Doppler Factor

Next 0 passes for location: London (51.5072 / 0.1276)

Sorry there are no passes over London.